This demonstration page uses our WeatherBlox Daily Observations layout. Learn more.

38.89511, -77.03637

Hourly Observations for June 14, 2015

Temp ( °F °C ) Dew Point ( °F °C ) Humidity (%) Winds ( mph kmh ) Pressure ( in mb ) Visibility ( mi km ) Precip ( " mm )
12:48 am 00:48 Mostly Cloudy with Thunderstorms 82 28 70 21 66 66 SSW 5 7 30.03 1017 10 16.09344 0 0
12:52 am 00:52 Mostly Cloudy with Thunderstorms 82 28 70 21 66 66 SSW 5 7 30.03 1017 10 16.09344 0 0
1:46 am 01:46 Cloudy 82 28 70 21 66 66 NW 7 11 30.03 1017 10 16.09344 0 0
1:52 am 01:52 Cloudy 82 28 70 21 66 66 NW 6 9 30.03 1017 10 16.09344 0 0
2:52 am 02:52 Cloudy 81 27 72 22 74 74 ENE 3 6 30.03 1017 10 16.09344 0 0
3:52 am 03:52 Cloudy 81 27 72 22 74 74 N 3 6 30.03 1017 9 14.484096 0 0
4:52 am 04:52 Mostly Cloudy 81 27 72 22 74 74 Calm 30.03 1017 10 16.09344 0 0
5:52 am 05:52 Mostly Cloudy 79 26 72 22 79 79 N 5 7 30.03 1017 10 16.09344 0 0
6:52 am 06:52 Mostly Cloudy 81 27 73 23 79 79 NNW 6 9 30.06 1018 10 16.09344 0 0
7:52 am 07:52 Mostly Cloudy 82 28 73 23 74 74 N 5 7 30.06 1018 10 16.09344 0 0
8:52 am 08:52 Partly Cloudy 84 29 73 23 70 70 Calm 30.06 1018 9 14.484096 0 0
9:52 am 09:52 Partly Cloudy 88 31 72 22 59 59 N 5 7 30.06 1018 10 16.09344 0 0
10:52 am 10:52 Partly Cloudy 90 32 70 21 52 52 Calm 30.06 1018 10 16.09344 0 0
11:52 am 11:52 Partly Cloudy 90 32 70 21 52 52 ESE 3 6 30.06 1018 10 16.09344 0 0
12:52 pm 12:52 Mostly Cloudy 91 33 70 21 49 49 E 5 7 30.03 1017 10 16.09344 0 0
1:52 pm 13:52 Mostly Cloudy 90 32 70 21 52 52 SSE 7 11 30.03 1017 10 16.09344 0 0
2:52 pm 14:52 Mostly Cloudy 91 33 72 22 52 52 S 10 17 30.03 1017 10 16.09344 0 0
3:52 pm 15:52 Mostly Cloudy 90 32 73 23 59 59 S 9 15 30 1016 10 16.09344 0 0
4:50 pm 16:50 Mostly Cloudy with Thunderstorms 90 32 73 23 59 59 S 9 15 30 1016 10 16.09344 0 0
4:52 pm 16:52 Mostly Cloudy with Thunderstorms 90 32 73 23 59 59 S 8 13 30 1016 10 16.09344 0 0
4:57 pm 16:57 Mostly Cloudy with Heavy Thunderstorms 90 32 72 22 55 55 WSW 18 30 30 1016 1.5 2.414016 0.001 0.001
5:10 pm 17:10 Mostly Cloudy with Light Thunderstorms 82 28 73 23 74 74 Calm 30 1016 7 11.265408 0 0
5:20 pm 17:20 Mostly Cloudy with Thunderstorms 82 28 73 23 74 74 ENE 8 13 30 1016 7 11.265408 0 0
5:35 pm 17:35 Mostly Cloudy with Thunderstorms 82 28 73 23 74 74 NE 9 15 30 1016 7 11.265408 0.24 6.096
5:45 pm 17:45 Cloudy with Thunderstorms 81 27 73 23 79 79 NNW 23 37 30.03 1017 7 11.265408 0.26 6.604
5:52 pm 17:52 Cloudy with Heavy Thunderstorms 79 26 73 23 84 84 NNW 21 33 30.03 1017 5 8.04672 0.29 7.366
5:56 pm 17:56 Cloudy with Thunderstorms 79 26 73 23 84 84 N 26 43 30 1016 2.5 4.02336 0 0
6:05 pm 18:05 Cloudy with Light Thunderstorms 79 26 73 23 84 84 NNW 8 13 30.03 1017 7 11.265408 0.23 5.842
6:12 pm 18:12 Mostly Cloudy with Light Thunderstorms 79 26 73 23 84 84 ENE 8 13 30 1016 8 12.874752 0 0
6:20 pm 18:20 Mostly Cloudy with Light Rain 79 26 75 24 89 89 ENE 6 9 30 1016 10 16.09344 0 0
6:52 pm 18:52 Mostly Cloudy 81 27 75 24 84 84 Calm 30 1016 10 16.09344 0.23 5.842
7:52 pm 19:52 Mostly Cloudy 82 28 73 23 74 74 Calm 30 1016 10 16.09344 0 0
8:52 pm 20:52 Mostly Cloudy 82 28 75 24 79 79 E 3 6 30 1016 10 16.09344 0 0
9:52 pm 21:52 Partly Cloudy 81 27 75 24 84 84 ESE 6 9 30.03 1017 10 16.09344 0 0
10:52 pm 22:52 Partly Cloudy 81 27 75 24 84 84 SE 3 6 30.03 1017 10 16.09344 0 0
11:52 pm 23:52 Mostly Cloudy 81 27 75 24 84 84 SE 3 6 30.03 1017 9 14.484096 0 0

Powered by AerisWeather